GW4712 Weather Reports


time (UTC)temp
C
wind
direction
speed
KPH
gust
KPH
rain 1hr
cm
rain 24hr
cm
rain mn
cm
humidity
%
barometer
mb
20260903195222 33 234 0.0 0.0 0.00 0.00 0.00 61 1016.7
20260903194722 33 307 0.0 0.0 0.00 0.00 0.00 59 1016.4
20260903194218 33 261 0.0 1.6 0.00 0.00 0.00 60 1016.7
20260903193713 33 261 0.0 0.0 0.00 0.00 0.00 60 1016.6
20260903193208 33 251 0.0 0.0 0.00 0.00 0.00 63 1016.6
20260903192704 33 306 0.0 0.0 0.00 0.00 0.00 64 1016.7
20260903192200 33 242 0.0 0.0 0.00 0.00 0.00 62 1016.9
20260903191656 33 271 0.0 0.0 0.00 0.00 0.00 62 1016.8
20260903191155 33 270 0.0 0.0 0.00 0.00 0.00 61 1016.6
20260903190650 33 242 0.0 0.0 0.00 0.00 0.00 62 1016.8
20260903190145 33 303 0.0 0.0 0.00 0.00 0.00 61 1016.8
20260903185640 33 303 0.0 0.0 0.00 0.00 0.00 67 1017.1
20260903185135 33 0 0.0 0.0 0.00 0.00 0.00 63 1017.1
20260903184631 33 305 0.0 0.0 0.00 0.00 0.00 67 1017.2
20260903184127 33 304 0.0 0.0 0.00 0.00 0.00 65 1017.4
20260903183625 32 242 0.0 0.0 0.00 0.00 0.00 66 1017.5
20260903183121 32 253 0.0 0.0 0.00 0.00 0.00 66 1017.6
20260903182620 32 253 0.0 0.0 0.00 0.00 0.00 64 1017.5
20260903182116 32 293 0.0 0.0 0.00 0.00 0.00 67 1017.6
20260903181614 33 237 0.0 0.0 0.00 0.00 0.00 64 1017.4
20260903181108 33 253 0.0 0.0 0.00 0.00 0.00 65 1017.5
20260903180604 33 352 0.0 0.0 0.00 0.00 0.00 66 1017.5
20260903180058 32 290 0.0 0.0 0.00 0.00 0.00 64 1017.7
20260903175557 32 255 0.0 0.0 0.00 0.00 0.00 65 1017.7
20260903175052 33 303 0.0 0.0 0.00 0.00 0.00 66 1017.7
20260903174552 32 268 0.0 0.0 0.00 0.00 0.00 73 1017.6
20260903174047 32 176 0.0 1.6 0.00 0.00 0.00 68 1017.8
20260903173541 32 279 0.0 0.0 0.00 0.00 0.00 66 1017.9
20260903173038 32 249 0.0 0.0 0.00 0.00 0.00 67 1017.8
20260903172532 32 224 0.0 0.0 0.00 0.00 0.00 68 1017.9
20260903172028 32 244 0.0 0.0 0.00 0.00 0.00 68 1017.9
20260903171523 32 11 0.0 0.0 0.00 0.00 0.00 70 1017.9
20260903171018 32 308 0.0 0.0 0.00 0.00 0.00 70 1018.0
20260903170517 32 301 0.0 0.0 0.00 0.00 0.00 68 1018.1
20260903170013 32 308 0.0 1.6 0.00 0.00 0.00 69 1018.1
20260903165510 32 264 0.0 0.0 0.00 0.00 0.00 71 1018.0
20260903165006 31 202 0.0 0.0 0.00 0.00 0.00 69 1018.3
20260903164455 31 234 0.0 0.0 0.00 0.00 0.00 68 1018.3
20260903163956 31 246 0.0 0.0 0.00 0.00 0.00 67 1018.3
20260903163451 31 358 0.0 0.0 0.00 0.00 0.00 70 1018.1
20260903162947 32 287 0.0 0.0 0.00 0.00 0.00 70 1018.2
20260903162443 31 249 0.0 0.0 0.00 0.00 0.00 71 1018.2
20260903161938 31 247 0.0 1.6 0.00 0.00 0.00 70 1018.5
20260903161434 31 299 0.0 0.0 0.00 0.00 0.00 70 1018.2
20260903160930 31 289 0.0 0.0 0.00 0.00 0.00 73 1018.4
20260903160429 31 246 0.0 0.0 0.00 0.00 0.00 71 1018.7
20260903155928 31 286 0.0 0.0 0.00 0.00 0.00 72 1018.4
20260903155423 31 286 0.0 0.0 0.00 0.00 0.00 74 1018.6
20260903154919 31 264 0.0 0.0 0.00 0.00 0.00 75 1018.5
20260903154414 31 161 0.0 0.0 0.00 0.00 0.00 73 1018.6
20260903153914 30 234 0.0 0.0 0.00 0.00 0.00 74 1018.7
20260903153410 30 242 0.0 0.0 0.00 0.00 0.00 72 1018.5
20260903152906 30 274 0.0 0.0 0.00 0.00 0.00 75 1018.5
20260903152401 30 175 0.0 0.0 0.00 0.00 0.00 76 1018.8
20260903151857 30 304 0.0 0.0 0.00 0.00 0.00 77 1018.7
20260903151352 30 269 0.0 0.0 0.00 0.00 0.00 77 1018.8
20260903150852 30 275 0.0 0.0 0.00 0.00 0.00 77 1018.7
20260903150347 30 244 0.0 0.0 0.00 0.00 0.00 76 1018.7
20260903145841 29 248 0.0 0.0 0.00 0.00 0.00 78 1018.8
20260903145337 29 274 0.0 0.0 0.00 0.00 0.00 78 1018.7
20260903144836 29 163 0.0 0.0 0.00 0.00 0.00 78 1018.8
20260903144331 29 152 0.0 0.0 0.00 0.00 0.00 80 1018.7
20260903143826 28 171 0.0 0.0 0.00 0.00 0.00 81 1018.7
20260903143323 28 205 0.0 0.0 0.00 0.00 0.00 81 1018.7
20260903142819 28 246 0.0 0.0 0.00 0.00 0.00 81 1018.8
20260903142315 28 155 0.0 0.0 0.00 0.00 0.00 80 1018.7
20260903141810 28 117 0.0 0.0 0.00 0.00 0.00 83 1018.8
20260903141306 27 138 0.0 0.0 0.00 0.00 0.00 84 1018.7
20260903140806 27 137 0.0 0.0 0.00 0.00 0.00 86 1018.8
20260903140301 27 137 0.0 0.0 0.00 0.00 0.00 84 1018.7
20260903135756 27 137 0.0 0.0 0.00 0.00 0.00 87 1018.6
20260903135252 27 137 0.0 0.0 0.00 0.00 0.00 87 1018.5
20260903134750 27 136 0.0 0.0 0.00 0.00 0.00 87 1018.5
20260903134247 26 136 0.0 0.0 0.00 0.00 0.00 91 1018.8
20260903133743 26 159 0.0 0.0 0.00 0.00 0.00 90 1018.6
20260903133240 26 159 0.0 0.0 0.00 0.00 0.00 92 1018.7
20260903132735 26 161 0.0 0.0 0.00 0.00 0.00 93 1018.9
20260903132229 26 161 0.0 0.0 0.00 0.00 0.00 93 1018.9
20260903131724 25 161 0.0 0.0 0.00 0.00 0.00 93 1018.8
20260903131218 25 161 0.0 0.0 0.00 0.00 0.00 94 1019.1
20260903130714 25 161 0.0 0.0 0.00 0.00 0.00 95 1019.2
20260903130214 24 161 0.0 0.0 0.00 0.00 0.00 96 1019.3
20260903125712 23 162 0.0 0.0 0.00 0.00 0.00 98 1019.3
20260903125207 23 163 0.0 0.0 0.00 0.00 0.00 97 1019.3
20260903124706 23 163 0.0 0.0 0.00 0.00 0.00 98 1018.9
20260903124201 22 162 0.0 0.0 0.00 0.00 0.00 99 1019.1
20260903123701 22 162 0.0 0.0 0.00 0.00 0.00 99 1019.1
20260903123200 22 162 0.0 0.0 0.00 0.00 0.00 99 1019.3
20260903122659 22 163 0.0 0.0 0.00 0.00 0.00 99 1019.5
20260903122154 22 162 0.0 0.0 0.00 0.00 0.00 99 1019.3
20260903121652 22 162 0.0 0.0 0.00 0.00 0.00 99 1019.1
20260903121149 21 163 0.0 0.0 0.00 0.00 0.00 99 1019.3
20260903120648 21 163 0.0 0.0 0.00 0.00 0.00 99 1019.2
20260903120142 21 163 0.0 0.0 0.00 0.00 0.00 99 1019.1
20260903115641 21 162 0.0 0.0 0.00 0.00 0.00 99 1019.1
20260903115136 21 162 0.0 0.0 0.00 0.00 0.00 99 1019.1
20260903114631 20 162 0.0 0.0 0.00 0.00 0.00 99 1019.2
20260903114127 20 163 0.0 0.0 0.00 0.00 0.00 99 1019.3
20260903113622 20 163 0.0 0.0 0.00 0.00 0.00 99 1019.1
20260903113118 20 162 0.0 0.0 0.00 0.00 0.00 99 1019.1
20260903112614 20 162 0.0 0.0 0.00 0.00 0.00 99 1019.1
20260903112114 20 162 0.0 0.0 0.00 0.00 0.00 99 1019.1
20260903111613 20 162 0.0 0.0 0.00 0.00 0.00 99 1018.8
20260903111109 20 162 0.0 0.0 0.00 0.00 0.00 99 1018.7
20260903110605 20 162 0.0 0.0 0.00 0.00 0.00 99 1018.9
20260903110059 20 162 0.0 0.0 0.00 0.00 0.00 99 1018.6
20260903105554 20 162 0.0 0.0 0.00 0.00 0.00 99 1018.5
20260903105049 20 162 0.0 0.0 0.00 0.00 0.00 99 1018.5
20260903104549 20 162 0.0 0.0 0.00 0.00 0.00 99 1018.6
20260903104045 20 162 0.0 0.0 0.00 0.00 0.00 99 1018.4
20260903103541 20 163 0.0 0.0 0.00 0.00 0.00 99 1018.3
20260903103037 20 162 0.0 0.0 0.00 0.00 0.00 99 1018.3
20260903102532 20 162 0.0 0.0 0.00 0.00 0.00 99 1018.4
20260903102031 20 162 0.0 0.0 0.00 0.00 0.00 99 1018.3
20260903101526 20 162 0.0 0.0 0.00 0.00 0.00 99 1018.2
20260903101022 20 162 0.0 0.0 0.00 0.00 0.00 99 1018.3
20260903100516 20 162 0.0 0.0 0.00 0.00 0.00 99 1018.3
20260903100015 20 162 0.0 0.0 0.00 0.00 0.00 99 1018.3
20260903095508 20 162 0.0 0.0 0.00 0.00 0.00 99 1018.2
20260903095004 20 162 0.0 0.0 0.00 0.00 0.00 99 1018.2
20260903094503 20 163 0.0 0.0 0.00 0.00 0.00 99 1018.1
20260903093958 20 162 0.0 0.0 0.00 0.00 0.00 99 1018.3
20260903093458 20 163 0.0 0.0 0.00 0.00 0.00 99 1018.3
20260903092954 20 162 0.0 0.0 0.00 0.00 0.00 99 1018.1
20260903092454 20 162 0.0 0.0 0.00 0.00 0.00 99 1018.2
20260903091953 20 163 0.0 0.0 0.00 0.00 0.00 99 1018.1
20260903091451 21 163 0.0 0.0 0.00 0.00 0.00 99 1018.1
20260903090946 20 163 0.0 0.0 0.00 0.00 0.00 99 1018.1
20260903090442 20 163 0.0 0.0 0.00 0.00 0.00 99 1018.0
20260903085940 20 163 0.0 0.0 0.00 0.00 0.00 99 1018.2
20260903085439 21 163 0.0 0.0 0.00 0.00 0.00 99 1018.2
20260903084939 21 163 0.0 0.0 0.00 0.00 0.00 99 1018.1
20260903084438 21 163 0.0 0.0 0.00 0.00 0.00 99 1018.2
20260903083933 21 163 0.0 0.0 0.00 0.00 0.00 99 1018.1
20260903083429 21 163 0.0 0.0 0.00 0.00 0.00 99 1018.3
20260903082928 21 163 0.0 0.0 0.00 0.00 0.00 99 1018.0
20260903082423 21 163 0.0 0.0 0.00 0.00 0.00 99 1018.3
20260903081918 21 163 0.0 0.0 0.00 0.00 0.00 99 1018.2
20260903081413 21 163 0.0 0.0 0.00 0.00 0.00 99 1018.2
20260903080910 21 162 0.0 0.0 0.00 0.00 0.00 99 1018.3
20260903080406 21 162 0.0 0.0 0.00 0.00 0.00 99 1018.3
20260903075901 21 162 0.0 0.0 0.00 0.00 0.00 99 1018.1
20260903075356 21 162 0.0 0.0 0.00 0.00 0.00 99 1018.2
20260903074851 21 162 0.0 0.0 0.00 0.00 0.00 99 1018.1
20260903074350 21 162 0.0 0.0 0.00 0.00 0.00 99 1018.2
20260903073846 21 162 0.0 0.0 0.00 0.00 0.00 99 1018.3
20260903073341 21 163 0.0 0.0 0.00 0.00 0.00 99 1018.1
20260903072837 21 163 0.0 0.0 0.00 0.00 0.00 99 1017.9
20260903072333 21 162 0.0 0.0 0.00 0.00 0.00 99 1018.0
20260903071829 21 162 0.0 0.0 0.00 0.00 0.00 99 1017.9
20260903071325 21 163 0.0 0.0 0.00 0.00 0.00 99 1018.0
20260903070820 21 162 0.0 0.0 0.00 0.00 0.00 99 1018.2
20260903070316 21 162 0.0 0.0 0.00 0.00 0.00 99 1018.3
20260903065810 21 162 0.0 0.0 0.00 0.00 0.00 99 1018.2
20260903065309 21 162 0.0 0.0 0.00 0.00 0.00 99 1018.1
20260903064809 21 162 0.0 0.0 0.00 0.00 0.00 99 1018.3
20260903064304 21 162 0.0 0.0 0.00 0.00 0.00 99 1018.3
20260903063800 21 162 0.0 0.0 0.00 0.00 0.00 99 1018.2
20260903063254 21 162 0.0 0.0 0.00 0.00 0.00 99 1018.3
20260903062746 21 162 0.0 0.0 0.00 0.00 0.00 99 1018.1
20260903062244 21 162 0.0 0.0 0.00 0.00 0.00 99 1018.1
20260903061741 21 162 0.0 0.0 0.00 0.00 0.00 99 1018.1
20260903061239 21 162 0.0 0.0 0.00 0.00 0.00 99 1017.9
20260903060730 21 162 0.0 0.0 0.00 0.00 0.00 99 1018.0
20260903060230 21 163 0.0 0.0 0.00 0.00 0.00 99 1018.0
20260903055727 21 163 0.0 0.0 0.00 0.00 0.00 99 1017.9
20260903055226 21 163 0.0 0.0 0.00 0.00 0.00 99 1018.1
20260903054721 21 163 0.0 0.0 0.00 0.00 0.00 99 1018.0
20260903054216 21 163 0.0 0.0 0.00 0.00 0.00 99 1018.1
20260903053713 21 163 0.0 0.0 0.00 0.00 0.00 99 1017.7
20260903053213 21 163 0.0 0.0 0.00 0.00 0.00 99 1017.8
20260903052708 21 163 0.0 0.0 0.00 0.00 0.00 99 1017.9
20260903052205 21 163 0.0 0.0 0.00 0.00 0.00 99 1017.9
20260903051704 21 163 0.0 0.0 0.00 0.00 0.00 99 1017.8
20260903051200 21 163 0.0 0.0 0.00 0.00 0.00 99 1017.7
20260903050655 22 163 0.0 0.0 0.00 0.00 0.00 99 1017.7
20260903050154 22 163 0.0 0.0 0.00 0.00 0.00 99 1017.7
20260903045649 21 163 0.0 0.0 0.00 0.00 0.00 99 1017.5
20260903045146 22 163 0.0 0.0 0.00 0.00 0.00 99 1017.5
20260903044642 22 163 0.0 0.0 0.00 0.00 0.00 99 1017.7
20260903044137 22 163 0.0 0.0 0.00 0.00 0.00 99 1017.6
20260903043634 22 163 0.0 0.0 0.00 0.00 0.00 99 1017.7
20260903043132 22 163 0.0 0.0 0.00 0.00 0.00 99 1017.9
20260903042632 22 163 0.0 0.0 0.00 0.00 0.00 99 1017.7
20260903042127 22 163 0.0 0.0 0.00 0.00 0.00 99 1017.6
20260903041624 22 163 0.0 0.0 0.00 0.00 0.00 99 1017.8
20260903041120 22 163 0.0 0.0 0.00 0.00 0.00 99 1017.5
20260903040618 22 163 0.0 0.0 0.00 0.00 0.00 99 1017.6
20260903040115 22 163 0.0 0.0 0.00 0.00 0.00 99 1017.7
20260903035610 22 163 0.0 0.0 0.00 0.00 0.00 99 1017.6
20260903035106 22 163 0.0 0.0 0.00 0.00 0.00 99 1018.0
20260903034600 22 163 0.0 0.0 0.00 0.00 0.00 99 1017.9
20260903034055 22 163 0.0 0.0 0.00 0.00 0.00 99 1018.0
20260903033551 22 163 0.0 0.0 0.00 0.00 0.00 99 1017.9
20260903033046 22 163 0.0 0.0 0.00 0.00 0.00 99 1018.0
20260903032541 22 163 0.0 0.0 0.00 0.00 0.00 99 1018.1
20260903032036 22 163 0.0 0.0 0.00 0.00 0.00 99 1017.8
20260903031536 22 163 0.0 0.0 0.00 0.00 0.00 99 1017.9
20260903031031 22 163 0.0 0.0 0.00 0.00 0.00 99 1018.1
20260903030527 22 163 0.0 0.0 0.00 0.00 0.00 99 1018.0
20260903030023 22 163 0.0 0.0 0.00 0.00 0.00 99 1018.2
20260903025518 22 163 0.0 0.0 0.00 0.00 0.00 99 1018.2
20260903025014 23 163 0.0 0.0 0.00 0.00 0.00 99 1018.3
20260903024513 23 163 0.0 0.0 0.00 0.00 0.00 99 1018.3
20260903024007 23 163 0.0 0.0 0.00 0.00 0.00 99 1018.3
20260903023503 23 163 0.0 0.0 0.00 0.00 0.00 99 1018.4
20260903022958 23 163 0.0 0.0 0.00 0.00 0.00 99 1018.2
20260903022457 23 163 0.0 0.0 0.00 0.00 0.00 99 1018.5
20260903021955 23 163 0.0 0.0 0.00 0.00 0.00 99 1018.3
20260903021451 23 163 0.0 0.0 0.00 0.00 0.00 99 1018.2
20260903020946 23 163 0.0 0.0 0.00 0.00 0.00 99 1018.3
20260903020442 23 163 0.0 0.0 0.00 0.00 0.00 99 1018.3
20260903015936 23 163 0.0 0.0 0.00 0.00 0.00 99 1018.3
20260903015432 23 163 0.0 0.0 0.00 0.00 0.00 99 1018.4
20260903014926 23 163 0.0 0.0 0.00 0.00 0.00 99 1018.2
20260903014426 23 163 0.0 0.0 0.00 0.00 0.00 99 1018.4
20260903013921 23 163 0.0 0.0 0.00 0.00 0.00 98 1018.5
20260903013421 23 163 0.0 0.0 0.00 0.00 0.00 98 1018.4
20260903012920 23 163 0.0 0.0 0.00 0.00 0.00 98 1018.3
20260903012420 23 163 0.0 0.0 0.00 0.00 0.00 98 1018.3
20260903011919 23 163 0.0 0.0 0.00 0.00 0.00 98 1018.3
20260903011414 23 163 0.0 0.0 0.00 0.00 0.00 98 1018.2
20260903010909 23 163 0.0 0.0 0.00 0.00 0.00 98 1018.0
20260903010404 23 163 0.0 0.0 0.00 0.00 0.00 98 1018.1
20260903005902 23 163 0.0 0.0 0.00 0.00 0.00 98 1018.0
20260903005358 24 163 0.0 0.0 0.00 0.00 0.00 98 1018.0
20260903004854 24 163 0.0 0.0 0.00 0.00 0.00 98 1017.8
20260903004349 24 163 0.0 0.0 0.00 0.00 0.00 97 1017.9
20260903003844 24 163 0.0 0.0 0.00 0.00 0.00 97 1017.9
20260903003344 24 163 0.0 0.0 0.00 0.00 0.00 97 1017.9
20260903002844 25 163 0.0 0.0 0.00 0.00 0.00 96 1017.8
20260903002339 25 163 0.0 0.0 0.00 0.00 0.00 96 1018.0
20260903001834 25 163 0.0 0.0 0.00 0.00 0.00 96 1017.9
20260903001329 25 163 0.0 0.0 0.00 0.00 0.00 96 1017.6
20260903000829 25 163 0.0 0.0 0.00 0.00 0.00 96 1017.6
20260903000318 25 163 0.0 0.0 0.00 0.00 0.00 95 1017.7
20260902235816 25 163 0.0 0.0 0.00 0.00 0.00 95 1017.7
20260902235312 26 163 0.0 0.0 0.00 0.00 0.00 94 1017.6
20260902234806 26 163 0.0 0.0 0.00 0.00 0.00 94 1017.7
20260902234306 26 163 0.0 0.0 0.00 0.00 0.00 93 1017.5
20260902233805 26 163 0.0 0.0 0.00 0.00 0.00 92 1017.5
20260902233304 27 163 0.0 0.0 0.00 0.00 0.00 91 1017.4
20260902232803 27 163 0.0 0.0 0.00 0.00 0.00 91 1017.6
20260902232306 27 163 0.0 0.0 0.00 0.00 0.00 90 1017.6
20260902231803 27 163 0.0 0.0 0.00 0.00 0.00 90 1017.5
20260902231258 27 163 0.0 0.0 0.00 0.00 0.00 88 1017.4
20260902230753 28 167 0.0 0.0 0.00 0.00 0.00 87 1017.5
20260902230252 28 169 0.0 0.0 0.00 0.00 0.00 85 1017.7
20260902225747 28 179 0.0 0.0 0.00 0.00 0.00 84 1017.6
20260902225242 29 179 0.0 0.0 0.00 0.00 0.00 83 1017.6
20260902224740 30 179 0.0 0.0 0.00 0.00 0.00 82 1017.6
20260902224236 30 179 0.0 0.0 0.00 0.00 0.00 78 1017.6
20260902223732 31 255 0.0 0.0 0.00 0.00 0.00 77 1017.7
20260902223231 31 256 0.0 0.0 0.00 0.00 0.00 78 1017.5
20260902222730 31 256 0.0 0.0 0.00 0.00 0.00 72 1017.6
20260902222224 31 252 0.0 0.0 0.00 0.00 0.00 73 1017.6
20260902221719 32 252 0.0 0.0 0.00 0.00 0.00 72 1017.8
20260902221213 32 239 0.0 0.0 0.00 0.00 0.00 67 1017.6
20260902220709 32 246 0.0 0.0 0.00 0.00 0.00 66 1017.7
20260902220208 32 246 0.0 0.0 0.00 0.00 0.00 70 1017.6
20260902215704 32 241 0.0 0.0 0.00 0.00 0.00 65 1017.6
20260902215200 32 221 0.0 0.0 0.00 0.00 0.00 68 1017.7
20260902214654 32 241 0.0 0.0 0.00 0.00 0.00 66 1018.0
20260902214153 32 258 0.0 0.0 0.00 0.00 0.00 66 1017.5
20260902213649 32 270 0.0 0.0 0.00 0.00 0.00 65 1017.8
20260902213148 32 241 0.0 0.0 0.00 0.00 0.00 65 1017.6
20260902212644 32 178 0.0 0.0 0.00 0.00 0.00 65 1017.8
20260902212140 33 266 0.0 0.0 0.00 0.00 0.00 64 1017.7
20260902211637 32 273 0.0 0.0 0.00 0.00 0.00 64 1017.7
20260902211136 32 301 0.0 0.0 0.00 0.00 0.00 62 1017.8
20260902210636 32 252 0.0 0.0 0.00 0.00 0.00 63 1017.8
20260902210131 33 249 0.0 0.0 0.00 0.00 0.00 64 1017.8
20260902205630 32 277 0.0 0.0 0.00 0.00 0.00 65 1017.9
20260902205126 33 250 0.0 0.0 0.00 0.00 0.00 62 1017.7
20260902204626 32 251 0.0 0.0 0.00 0.00 0.00 63 1017.8
20260902204120 32 302 0.0 0.0 0.00 0.00 0.00 63 1018.0
20260902203616 32 253 0.0 0.0 0.00 0.00 0.00 62 1018.1
20260902203115 32 308 0.0 0.0 0.00 0.00 0.00 64 1018.2
20260902202611 33 234 0.0 0.0 0.00 0.00 0.00 60 1018.3
20260902202108 32 272 0.0 0.0 0.00 0.00 0.00 63 1018.3
20260902201603 32 239 0.0 0.0 0.00 0.00 0.00 63 1018.3
20260902201102 32 236 0.0 0.0 0.00 0.00 0.00 64 1018.4
20260902200557 33 241 0.0 0.0 0.00 0.00 0.00 61 1018.3
20260902200054 32 154 0.0 0.0 0.00 0.00 0.00 63 1018.4